Find Starlink 1114

NORAD ID: 44927 Int'l Des: 2020-001 Owner: SPXS Country: US Constellation: starlink operational
LEOCIRCULAR

現在のビュー

3D地球を読み込み中...

About Starlink 1114

Starlink 1114 (NORAD 44927) is a starlink constellation satellite (v1.0) launched Jan 7, 2020 by SPXS of US. It operates in LEO, CIRCULAR orbit with a mass of 260.00 kg.

Starlink 1114について

説明を読み込み中...

次回通過

Passes for default location (London). Set your location on the main map for personalized predictions.

高度履歴

Loading altitude history...

軌道要素

1 44927U 20001P 26170.16242361 .00034763 00000-0 33584-3 0 9999
2 44927 53.0389 195.7952 0005361 30.0517 330.0805 15.66129489355929
Epoch: Jun 19, 2026 • Age: 6 hours

現在のステータス

高度 384.0 km
速度 7.68 km/s
衛星直下点 -42.48°S, 97.01°E
打ち上げ日 Jan 7, 2020
運用期間 6.4 years
タイプ internet

技術仕様

分類 Payload
質量 260.00 kg
乾燥質量 248.00 kg
総質量 260.00 kg
長さ 0.20 m
直径 2.80 m
スパン 9.00 m
形状 Box + pan
製造者 SPXS
バスタイプ Starlink
フェーズステータス In Orbit
所有者/国 SPXS/US

Most Searched